When you browse on this site, cookies collect data to enhance your experience and personalize the content and advertising you see.
Visit our Privacy Policy to learn more. By continuing to use the site, you agree to this use of cookies and data.
  • In Romania
  • List of Countries
  • For 7 days
  • Water Temperature
  • Weather Map
  • Weather Widgets
  • user-avatar
    Login

    Hourly Weather Bom Jesus da Lapa

    Today, 29 January, Wednesday

    Time Temperature Precipitation Wind Pressure Humidity
    00:00 +23°C° 0 mm 1 mps 723 mmHg 93%
    01:00 +23°C° 0 mm 1 mps 723 mmHg 93%
    02:00 +23°C° 0 mm 1 mps 722 mmHg 94%
    03:00 +22°C° 0 mm 1 mps 722 mmHg 95%
    04:00 +22°C° 0 mm 1 mps 722 mmHg 96%
    05:00 +22°C° 0 mm 1 mps 723 mmHg 96%
    06:00 +22°C° 0 mm 1 mps 723 mmHg 97%
    07:00 +24°C° 0 mm 1 mps 724 mmHg 91%
    08:00 +26°C° 0 mm 1 mps 725 mmHg 84%
    09:00 +28°C° 0 mm 1 mps 725 mmHg 77%
    10:00 +29°C° 0.1 mm 1 mps 725 mmHg 73%
    11:00 +30°C° 0.1 mm 1 mps 725 mmHg 70%
    12:00 +32°C° 0.1 mm 1 mps 724 mmHg 66%
    13:00 +31°C° 0.5 mm 1 mps 724 mmHg 67%
    14:00 +31°C° 0.5 mm 1 mps 723 mmHg 68%
    15:00 +31°C° 0.5 mm 1 mps 722 mmHg 68%
    16:00 +30°C° 0.2 mm 1 mps 722 mmHg 74%
    17:00 +29°C° 0.2 mm 1 mps 722 mmHg 79%
    18:00 +28°C° 0.2 mm 2 mps 722 mmHg 84%
    19:00 +27°C° 0.1 mm 2 mps 722 mmHg 86%
    20:00 +26°C° 0.1 mm 2 mps 723 mmHg 88%
    21:00 +25°C° 0.1 mm 1 mps 723 mmHg 90%
    22:00 +25°C° 0 mm 1 mps 723 mmHg 91%
    23:00 +24°C° 0 mm 1 mps 723 mmHg 92%

    Tomorrow, 30 January, Thursday

    Time Temperature Precipitation Wind Pressure Humidity
    00:00 +24°C° 0 mm 1 mps 723 mmHg 93%
    01:00 +24°C° 0 mm 1 mps 723 mmHg 93%
    02:00 +23°C° 0 mm 1 mps 722 mmHg 93%
    03:00 +21°C° 0 mm 0 mps 722 mmHg 93%
    04:00 +21°C° 0 mm 0 mps 722 mmHg 93%
    05:00 +22°C° 0 mm 1 mps 723 mmHg 93%
    06:00 +22°C° 0 mm 1 mps 723 mmHg 94%
    07:00 +24°C° 0 mm 1 mps 724 mmHg 87%
    08:00 +26°C° 0 mm 1 mps 724 mmHg 81%
    09:00 +28°C° 0 mm 1 mps 725 mmHg 75%
    10:00 +30°C° 0 mm 1 mps 724 mmHg 69%
    11:00 +31°C° 0 mm 1 mps 724 mmHg 63%
    12:00 +32°C° 0 mm 1 mps 724 mmHg 57%
    13:00 +34°C° 0 mm 2 mps 723 mmHg 54%
    14:00 +34°C° 0 mm 2 mps 722 mmHg 52%
    15:00 +34°C° 0 mm 2 mps 722 mmHg 49%
    16:00 +31°C° 0 mm 2 mps 722 mmHg 57%
    17:00 +30°C° 0 mm 2 mps 722 mmHg 64%
    18:00 +28°C° 0 mm 2 mps 722 mmHg 71%
    19:00 +27°C° 0 mm 2 mps 722 mmHg 72%
    20:00 +26°C° 0 mm 2 mps 722 mmHg 73%
    21:00 +25°C° 0 mm 2 mps 722 mmHg 73%
    22:00 +25°C° 0 mm 2 mps 722 mmHg 74%
    23:00 +24°C° 0 mm 1 mps 723 mmHg 76%

    Day after tomorrow, 31 January, Friday

    Time Temperature Precipitation Wind Pressure Humidity
    00:00 +24°C° 0 mm 1 mps 723 mmHg 77%
    01:00 +24°C° 0 mm 1 mps 723 mmHg 77%
    02:00 +22°C° 0 mm 0 mps 723 mmHg 77%
    03:00 +21°C° 0 mm 0 mps 722 mmHg 78%
    04:00 +21°C° 0 mm 0 mps 723 mmHg 80%
    05:00 +22°C° 0 mm 1 mps 723 mmHg 82%
    06:00 +22°C° 0 mm 1 mps 723 mmHg 84%
    07:00 +24°C° 0 mm 1 mps 724 mmHg 77%
    08:00 +26°C° 0 mm 1 mps 724 mmHg 71%
    09:00 +28°C° 0 mm 1 mps 725 mmHg 65%
    10:00 +30°C° 0 mm 1 mps 724 mmHg 60%
    11:00 +32°C° 0 mm 1 mps 724 mmHg 55%
    12:00 +33°C° 0 mm 1 mps 724 mmHg 50%
    13:00 +33°C° 0 mm 1 mps 723 mmHg 49%
    14:00 +33°C° 0 mm 1 mps 722 mmHg 49%
    15:00 +33°C° 0 mm 1 mps 721 mmHg 48%
    16:00 +31°C° 0 mm 1 mps 721 mmHg 54%
    17:00 +30°C° 0 mm 1 mps 721 mmHg 61%
    18:00 +29°C° 0 mm 1 mps 721 mmHg 67%
    19:00 +28°C° 0 mm 1 mps 721 mmHg 68%
    20:00 +27°C° 0 mm 1 mps 721 mmHg 69%
    21:00 +26°C° 0 mm 1 mps 722 mmHg 69%
    22:00 +26°C° 0 mm 1 mps 722 mmHg 71%
    23:00 +25°C° 0 mm 1 mps 722 mmHg 72%

    1 February, Saturday

    Time Temperature Precipitation Wind Pressure Humidity
    00:00 +25°C° 0 mm 1 mps 723 mmHg 73%
    01:00 +25°C° 0 mm 1 mps 722 mmHg 75%
    02:00 +24°C° 0 mm 1 mps 722 mmHg 77%
    03:00 +24°C° 0 mm 1 mps 722 mmHg 80%
    04:00 +24°C° 0 mm 1 mps 722 mmHg 81%
    05:00 +22°C° 0 mm 0 mps 723 mmHg 82%
    06:00 +22°C° 0 mm 0 mps 723 mmHg 83%
    07:00 +23°C° 0 mm 0 mps 723 mmHg 77%
    08:00 +25°C° 0 mm 0 mps 724 mmHg 71%
    09:00 +29°C° 0 mm 1 mps 724 mmHg 65%
    10:00 +31°C° 0 mm 1 mps 724 mmHg 60%
    11:00 +32°C° 0 mm 1 mps 723 mmHg 55%
    12:00 +33°C° 0 mm 1 mps 723 mmHg 50%
    13:00 +33°C° 0 mm 1 mps 722 mmHg 49%
    14:00 +34°C° 0 mm 2 mps 722 mmHg 48%
    15:00 +34°C° 0 mm 2 mps 721 mmHg 48%
    16:00 +32°C° 0 mm 2 mps 721 mmHg 55%
    17:00 +30°C° 0 mm 2 mps 720 mmHg 62%
    18:00 +29°C° 0 mm 2 mps 720 mmHg 69%
    19:00 +28°C° 0 mm 1 mps 721 mmHg 69%
    20:00 +27°C° 0 mm 1 mps 721 mmHg 69%
    21:00 +26°C° 0 mm 1 mps 721 mmHg 69%
    22:00 +25°C° 0 mm 1 mps 722 mmHg 72%
    23:00 +23°C° 0 mm 0 mps 722 mmHg 75%

    2 February, Sunday

    Time Temperature Precipitation Wind Pressure Humidity
    00:00 +22°C° 0 mm 0 mps 722 mmHg 78%
    01:00 +22°C° 0 mm 0 mps 722 mmHg 79%
    02:00 +22°C° 0 mm 0 mps 721 mmHg 80%
    03:00 +22°C° 0 mm 0 mps 721 mmHg 81%
    04:00 +21°C° 0 mm 0 mps 721 mmHg 82%
    05:00 +21°C° 0 mm 0 mps 722 mmHg 84%
    06:00 +21°C° 0 mm 0 mps 722 mmHg 85%
    07:00 +23°C° 0 mm 0 mps 723 mmHg 78%
    08:00 +26°C° 0 mm 0 mps 723 mmHg 72%
    09:00 +28°C° 0 mm 0 mps 724 mmHg 65%
    10:00 +31°C° 0 mm 1 mps 723 mmHg 60%
    11:00 +33°C° 0 mm 1 mps 723 mmHg 55%
    12:00 +34°C° 0 mm 1 mps 722 mmHg 49%
    13:00 +34°C° 0 mm 1 mps 722 mmHg 48%
    14:00 +34°C° 0 mm 1 mps 721 mmHg 46%
    15:00 +35°C° 0 mm 1 mps 720 mmHg 45%
    16:00 +33°C° 0 mm 1 mps 720 mmHg 51%
    17:00 +32°C° 0 mm 1 mps 720 mmHg 57%
    18:00 +30°C° 0 mm 1 mps 719 mmHg 63%
    19:00 +29°C° 0 mm 1 mps 720 mmHg 63%
    20:00 +28°C° 0 mm 1 mps 720 mmHg 63%
    21:00 +27°C° 0 mm 1 mps 721 mmHg 63%
    22:00 +27°C° 0 mm 1 mps 721 mmHg 66%
    23:00 +26°C° 0 mm 1 mps 721 mmHg 68%

    3 February, Monday

    Time Temperature Precipitation Wind Pressure Humidity
    00:00 +25°C° 0 mm 1 mps 721 mmHg 71%
    01:00 +25°C° 0 mm 1 mps 721 mmHg 71%
    02:00 +25°C° 0 mm 1 mps 721 mmHg 71%
    03:00 +25°C° 0 mm 1 mps 721 mmHg 71%
    04:00 +25°C° 0 mm 1 mps 721 mmHg 74%
    05:00 +25°C° 0 mm 1 mps 721 mmHg 76%
    06:00 +24°C° 0 mm 1 mps 721 mmHg 79%
    07:00 +26°C° 0 mm 1 mps 721 mmHg 75%
    08:00 +28°C° 0 mm 1 mps 722 mmHg 72%
    09:00 +30°C° 0 mm 2 mps 722 mmHg 68%
    10:00 +31°C° 0 mm 2 mps 722 mmHg 62%
    11:00 +32°C° 0 mm 2 mps 722 mmHg 57%
    12:00 +35°C° 0 mm 2 mps 721 mmHg 51%
    13:00 +35°C° 0 mm 2 mps 721 mmHg 50%
    14:00 +35°C° 0 mm 2 mps 720 mmHg 49%
    15:00 +36°C° 0 mm 2 mps 720 mmHg 48%
    16:00 +34°C° 0 mm 2 mps 719 mmHg 54%
    17:00 +32°C° 0 mm 2 mps 719 mmHg 61%
    18:00 +30°C° 0 mm 1 mps 719 mmHg 67%
    19:00 +29°C° 0.1 mm 2 mps 720 mmHg 71%
    20:00 +28°C° 0.1 mm 2 mps 720 mmHg 74%
    21:00 +27°C° 0.1 mm 2 mps 721 mmHg 78%
    22:00 +26°C° 0.1 mm 2 mps 721 mmHg 80%
    23:00 +26°C° 0.1 mm 1 mps 721 mmHg 83%
    Show more